Time,TemperatureF,DewpointF,PressureIn,WindDirection,WindDirectionDegrees,WindSpeedMPH,WindSpeedGustMPH,Humidity,HourlyPrecipIn,Conditions,Clouds,dailyrainin,SoftwareType,DateUTC
2013-03-15 00:09:00,36.1,18.0,30.21,East,99,0.0,2.0,49,0.00,,,0.00,weatherlink.com 1.10,2013-03-15 04:09:00,
2013-03-15 00:24:00,36.3,17.0,30.21,East,97,0.0,3.0,46,0.00,,,0.00,weatherlink.com 1.10,2013-03-15 04:24:00,
2013-03-15 00:39:00,35.6,17.0,30.20,East,83,1.0,3.0,46,0.00,,,0.00,weatherlink.com 1.10,2013-03-15 04:39:00,
2013-03-15 00:54:00,35.0,16.0,30.20,ENE,66,1.0,3.0,46,0.00,,,0.00,weatherlink.com 1.10,2013-03-15 04:54:00,
2013-03-15 01:09:00,35.7,17.0,30.20,ENE,65,0.0,3.0,46,0.00,,,0.00,weatherlink.com 1.10,2013-03-15 05:09:00,
2013-03-15 01:24:00,35.2,19.0,30.21,ENE,65,0.0,3.0,51,0.00,,,0.00,weatherlink.com 1.10,2013-03-15 05:24:00,
2013-03-15 01:39:00,33.8,17.0,30.21,ENE,65,2.0,3.0,51,0.00,,,0.00,weatherlink.com 1.10,2013-03-15 05:39:00,
2013-03-15 01:54:00,34.4,18.0,30.20,ENE,70,1.0,5.0,51,0.00,,,0.00,weatherlink.com 1.10,2013-03-15 05:54:00,
2013-03-15 02:09:00,34.9,20.0,30.20,East,79,0.0,3.0,55,0.00,,,0.00,weatherlink.com 1.10,2013-03-15 06:09:00,
2013-03-15 02:24:00,34.7,20.0,30.20,East,79,0.0,2.0,56,0.00,,,0.00,weatherlink.com 1.10,2013-03-15 06:24:00,
2013-03-15 02:39:00,33.6,19.0,30.19,East,79,1.0,1.0,55,0.00,,,0.00,weatherlink.com 1.10,2013-03-15 06:39:00,
2013-03-15 02:54:00,32.5,20.0,30.19,East,80,0.0,2.0,60,0.00,,,0.00,weatherlink.com 1.10,2013-03-15 06:54:00,
2013-03-15 03:09:00,32.8,19.0,30.19,East,80,1.0,3.0,56,0.00,,,0.00,weatherlink.com 1.10,2013-03-15 07:09:00,
2013-03-15 03:25:00,32.2,18.0,30.18,East,79,0.0,2.0,57,0.00,,,0.00,weatherlink.com 1.10,2013-03-15 07:25:00,
2013-03-15 03:40:00,31.9,18.0,30.18,East,79,0.0,3.0,56,0.00,,,0.00,weatherlink.com 1.10,2013-03-15 07:40:00,
2013-03-15 03:55:00,31.0,18.0,30.17,East,79,0.0,3.0,58,0.00,,,0.00,weatherlink.com 1.10,2013-03-15 07:55:00,
2013-03-15 04:10:00,30.0,20.0,30.17,East,79,0.0,3.0,66,0.00,,,0.00,weatherlink.com 1.10,2013-03-15 08:10:00,
2013-03-15 04:25:00,30.6,19.0,30.17,East,79,0.0,3.0,62,0.00,,,0.00,weatherlink.com 1.10,2013-03-15 08:25:00,
2013-03-15 04:40:00,30.7,18.0,30.17,ENE,77,2.0,4.0,60,0.00,,,0.00,weatherlink.com 1.10,2013-03-15 08:40:00,
2013-03-15 04:55:00,31.5,19.0,30.17,ENE,75,1.0,2.0,59,0.00,,,0.00,weatherlink.com 1.10,2013-03-15 08:55:00,
2013-03-15 05:10:00,31.5,18.0,30.17,ENE,78,1.0,3.0,58,0.00,,,0.00,weatherlink.com 1.10,2013-03-15 09:10:00,
2013-03-15 05:25:00,32.2,19.0,30.17,ENE,78,0.0,1.0,58,0.00,,,0.00,weatherlink.com 1.10,2013-03-15 09:25:00,
2013-03-15 05:40:00,31.6,19.0,30.17,ENE,78,0.0,0.0,61,0.00,,,0.00,weatherlink.com 1.10,2013-03-15 09:40:00,
2013-03-15 05:55:00,30.3,19.0,30.17,ENE,78,0.0,1.0,62,0.00,,,0.00,weatherlink.com 1.10,2013-03-15 09:55:00,
2013-03-15 06:10:00,30.0,18.0,30.17,ENE,78,0.0,3.0,62,0.00,,,0.00,weatherlink.com 1.10,2013-03-15 10:10:00,
2013-03-15 06:25:00,30.2,20.0,30.18,ENE,78,1.0,2.0,66,0.00,,,0.00,weatherlink.com 1.10,2013-03-15 10:25:00,
2013-03-15 06:40:00,29.7,20.0,30.19,ENE,78,0.0,2.0,66,0.00,,,0.00,weatherlink.com 1.10,2013-03-15 10:40:00,
2013-03-15 06:55:00,30.0,19.0,30.19,ENE,78,0.0,2.0,65,0.00,,,0.00,weatherlink.com 1.10,2013-03-15 10:55:00,
2013-03-15 07:10:00,30.1,20.0,30.19,ENE,78,0.0,2.0,66,0.00,,,0.00,weatherlink.com 1.10,2013-03-15 11:10:00,
2013-03-15 07:25:00,30.3,20.0,30.19,ENE,78,1.0,2.0,67,0.00,,,0.00,weatherlink.com 1.10,2013-03-15 11:25:00,
2013-03-15 07:40:00,30.2,20.0,30.19,ENE,78,1.0,4.0,67,0.00,,,0.00,weatherlink.com 1.10,2013-03-15 11:40:00,
2013-03-15 07:55:00,30.4,20.0,30.19,ENE,78,2.0,2.0,66,0.00,,,0.00,weatherlink.com 1.10,2013-03-15 11:55:00,
2013-03-15 08:10:00,30.2,20.0,30.19,ENE,78,1.0,3.0,66,0.00,,,0.00,weatherlink.com 1.10,2013-03-15 12:10:00,
2013-03-15 08:25:00,30.6,22.0,30.19,ENE,76,2.0,2.0,70,0.00,,,0.00,weatherlink.com 1.10,2013-03-15 12:25:00,
2013-03-15 08:40:00,32.6,21.0,30.19,East,91,0.0,5.0,63,0.00,,,0.00,weatherlink.com 1.10,2013-03-15 12:40:00,
2013-03-15 08:55:00,34.4,22.0,30.18,East,85,1.0,3.0,60,0.00,,,0.00,weatherlink.com 1.10,2013-03-15 12:55:00,
2013-03-15 09:10:00,36.0,22.0,30.19,East,85,1.0,2.0,58,0.00,,,0.00,weatherlink.com 1.10,2013-03-15 13:10:00,
2013-03-15 09:25:00,37.4,22.0,30.18,ESE,111,2.0,5.0,54,0.00,,,0.00,weatherlink.com 1.10,2013-03-15 13:25:00,
2013-03-15 09:40:00,39.0,23.0,30.18,ESE,111,0.0,3.0,53,0.00,,,0.00,weatherlink.com 1.10,2013-03-15 13:40:00,
2013-03-15 09:55:00,41.5,25.0,30.18,ESE,111,0.0,1.0,52,0.00,,,0.00,weatherlink.com 1.10,2013-03-15 13:55:00,
2013-03-15 10:10:00,43.3,27.0,30.17,ESE,110,1.0,4.0,52,0.00,,,0.00,weatherlink.com 1.10,2013-03-15 14:10:00,
2013-03-15 10:25:00,44.0,28.0,30.17,ESE,111,0.0,3.0,53,0.00,,,0.00,weatherlink.com 1.10,2013-03-15 14:25:00,
2013-03-15 10:40:00,45.1,27.0,30.16,SSE,166,4.0,5.0,49,0.00,,,0.00,weatherlink.com 1.10,2013-03-15 14:40:00,
2013-03-15 10:56:00,45.4,27.0,30.16,SSW,210,3.0,6.0,49,0.00,,,0.00,weatherlink.com 1.10,2013-03-15 14:56:00,
2013-03-15 11:11:00,46.9,28.0,30.15,SSW,193,4.0,8.0,48,0.00,,,0.00,weatherlink.com 1.10,2013-03-15 15:11:00,
2013-03-15 11:26:00,48.1,28.0,30.14,WNW,285,2.0,7.0,46,0.00,,,0.00,weatherlink.com 1.10,2013-03-15 15:26:00,
2013-03-15 11:41:00,50.8,29.0,30.13,SW,216,6.0,11.0,44,0.00,,,0.00,weatherlink.com 1.10,2013-03-15 15:41:00,
2013-03-15 11:56:00,52.8,31.0,30.12,SW,225,4.0,12.0,44,0.00,,,0.00,weatherlink.com 1.10,2013-03-15 15:56:00,
2013-03-15 12:11:00,54.3,33.0,30.11,South,182,10.0,10.0,44,0.00,,,0.00,weatherlink.com 1.10,2013-03-15 16:11:00,
2013-03-15 12:41:00,55.8,35.0,30.09,SSW,212,7.0,14.0,45,0.00,,,0.00,weatherlink.com 1.10,2013-03-15 16:41:00,
2013-03-15 12:56:00,56.7,33.0,30.08,WSW,244,7.0,13.0,41,0.00,,,0.00,weatherlink.com 1.10,2013-03-15 16:56:00,
2013-03-15 13:11:00,57.2,33.0,30.08,West,272,2.0,15.0,40,0.00,,,0.00,weatherlink.com 1.10,2013-03-15 17:11:00,
2013-03-15 13:26:00,58.2,34.0,30.07,South,186,7.0,12.0,40,0.00,,,0.00,weatherlink.com 1.10,2013-03-15 17:26:00,
2013-03-15 13:41:00,58.2,34.0,30.06,SSW,197,10.0,15.0,41,0.00,,,0.00,weatherlink.com 1.10,2013-03-15 17:41:00,
2013-03-15 13:56:00,58.7,35.0,30.05,South,170,9.0,14.0,41,0.00,,,0.00,weatherlink.com 1.10,2013-03-15 17:56:00,
2013-03-15 14:11:00,60.6,35.0,30.04,South,180,8.0,14.0,39,0.00,,,0.00,weatherlink.com 1.10,2013-03-15 18:11:00,
2013-03-15 14:26:00,61.2,35.0,30.03,SSW,210,7.0,12.0,38,0.00,,,0.00,weatherlink.com 1.10,2013-03-15 18:26:00,
2013-03-15 14:41:00,62.2,37.0,30.02,South,183,12.0,13.0,39,0.00,,,0.00,weatherlink.com 1.10,2013-03-15 18:41:00,
2013-03-15 14:56:00,62.3,36.0,30.01,WSW,246,8.0,12.0,38,0.00,,,0.00,weatherlink.com 1.10,2013-03-15 18:56:00,
2013-03-15 15:11:00,63.0,37.0,29.99,SSE,149,3.0,13.0,38,0.00,,,0.00,weatherlink.com 1.10,2013-03-15 19:11:00,
2013-03-15 15:26:00,63.2,37.0,29.98,SSW,199,5.0,12.0,38,0.00,,,0.00,weatherlink.com 1.10,2013-03-15 19:26:00,
2013-03-15 15:42:00,63.6,37.0,29.97,SW,215,6.0,13.0,37,0.00,,,0.00,weatherlink.com 1.10,2013-03-15 19:42:00,
2013-03-15 15:57:00,64.5,37.0,29.96,WSW,239,8.0,12.0,37,0.00,,,0.00,weatherlink.com 1.10,2013-03-15 19:57:00,
2013-03-15 16:12:00,65.0,38.0,29.95,South,188,10.0,13.0,37,0.00,,,0.00,weatherlink.com 1.10,2013-03-15 20:12:00,
2013-03-15 16:27:00,65.8,39.0,29.95,SW,230,8.0,12.0,37,0.00,,,0.00,weatherlink.com 1.10,2013-03-15 20:27:00,
2013-03-15 16:42:00,65.9,38.0,29.94,SSE,157,1.0,11.0,36,0.00,,,0.00,weatherlink.com 1.10,2013-03-15 20:42:00,
2013-03-15 16:57:00,67.4,39.0,29.93,SE,125,5.0,9.0,35,0.00,,,0.00,weatherlink.com 1.10,2013-03-15 20:57:00,
2013-03-15 17:12:00,67.5,39.0,29.93,SSW,212,2.0,10.0,35,0.00,,,0.00,weatherlink.com 1.10,2013-03-15 21:12:00,
2013-03-15 17:27:00,68.3,40.0,29.92,SE,139,4.0,8.0,35,0.00,,,0.00,weatherlink.com 1.10,2013-03-15 21:27:00,
2013-03-15 17:42:00,68.4,40.0,29.91,South,189,1.0,9.0,35,0.00,,,0.00,weatherlink.com 1.10,2013-03-15 21:42:00,
2013-03-15 17:57:00,68.7,38.0,29.91,SSW,206,4.0,6.0,33,0.00,,,0.00,weatherlink.com 1.10,2013-03-15 21:57:00,
2013-03-15 18:12:00,68.3,39.0,29.90,SSW,196,5.0,6.0,34,0.00,,,0.00,weatherlink.com 1.10,2013-03-15 22:12:00,
2013-03-15 18:27:00,68.1,39.0,29.90,SSW,199,4.0,9.0,34,0.00,,,0.00,weatherlink.com 1.10,2013-03-15 22:27:00,
2013-03-15 18:42:00,67.8,39.0,29.90,South,183,2.0,9.0,35,0.00,,,0.00,weatherlink.com 1.10,2013-03-15 22:42:00,
2013-03-15 18:57:00,67.5,39.0,29.90,South,179,2.0,4.0,35,0.00,,,0.00,weatherlink.com 1.10,2013-03-15 22:57:00,
2013-03-15 19:12:00,67.0,39.0,29.90,South,177,0.0,2.0,36,0.00,,,0.00,weatherlink.com 1.10,2013-03-15 23:12:00,
2013-03-15 19:27:00,66.4,39.0,29.90,South,177,0.0,1.0,37,0.00,,,0.00,weatherlink.com 1.10,2013-03-15 23:27:00,
2013-03-15 19:42:00,65.0,39.0,29.90,SE,133,2.0,3.0,38,0.00,,,0.00,weatherlink.com 1.10,2013-03-15 23:42:00,
2013-03-15 19:57:00,64.3,39.0,29.91,SE,133,1.0,2.0,40,0.00,,,0.00,weatherlink.com 1.10,2013-03-15 23:57:00,
2013-03-15 20:12:00,63.5,39.0,29.91,ESE,118,0.0,1.0,40,0.00,,,0.00,weatherlink.com 1.10,2013-03-16 00:12:00,
2013-03-15 20:27:00,61.7,39.0,29.90,ESE,116,2.0,2.0,44,0.00,,,0.00,weatherlink.com 1.10,2013-03-16 00:27:00,
2013-03-15 20:42:00,59.5,39.0,29.90,ESE,112,0.0,2.0,47,0.00,,,0.00,weatherlink.com 1.10,2013-03-16 00:42:00,
2013-03-15 20:57:00,58.6,39.0,29.91,ESE,112,0.0,3.0,49,0.00,,,0.00,weatherlink.com 1.10,2013-03-16 00:57:00,
2013-03-15 21:12:00,58.0,39.0,29.91,ESE,112,0.0,1.0,50,0.00,,,0.00,weatherlink.com 1.10,2013-03-16 01:12:00,
2013-03-15 21:27:00,57.2,39.0,29.91,ESE,112,0.0,1.0,51,0.00,,,0.00,weatherlink.com 1.10,2013-03-16 01:27:00,
2013-03-15 21:42:00,56.4,39.0,29.91,ESE,112,0.0,2.0,53,0.00,,,0.00,weatherlink.com 1.10,2013-03-16 01:42:00,
2013-03-15 21:57:00,56.3,39.0,29.91,ESE,112,1.0,2.0,52,0.00,,,0.00,weatherlink.com 1.10,2013-03-16 01:57:00,
2013-03-15 22:12:00,56.3,39.0,29.91,ESE,113,2.0,3.0,52,0.00,,,0.00,weatherlink.com 1.10,2013-03-16 02:12:00,
2013-03-15 22:27:00,56.4,38.0,29.91,ESE,113,0.0,2.0,51,0.00,,,0.00,weatherlink.com 1.10,2013-03-16 02:27:00,
2013-03-15 22:42:00,57.7,38.0,29.91,ESE,113,0.0,1.0,49,0.00,,,0.00,weatherlink.com 1.10,2013-03-16 02:42:00,
2013-03-15 22:57:00,56.9,39.0,29.92,ESE,113,1.0,2.0,51,0.00,,,0.00,weatherlink.com 1.10,2013-03-16 02:57:00,
2013-03-15 23:12:00,56.0,39.0,29.91,ESE,113,2.0,3.0,54,0.00,,,0.00,weatherlink.com 1.10,2013-03-16 03:12:00,
2013-03-15 23:27:00,55.5,40.0,29.91,SSW,209,1.0,1.0,56,0.00,,,0.00,weatherlink.com 1.10,2013-03-16 03:27:00,
2013-03-15 23:42:00,55.4,40.0,29.91,SSW,209,0.0,1.0,57,0.00,,,0.00,weatherlink.com 1.10,2013-03-16 03:42:00,
2013-03-15 23:57:00,56.1,41.0,29.91,SSW,209,0.0,1.0,57,0.00,,,0.00,weatherlink.com 1.10,2013-03-16 03:57:00,